Location: Newark
(34.3481°N, 134.0494°E)
Time: 15:01:15
(UTC+00:00)

Vanguard 3 - Pass Details

Date: 01 February 2020
Orbit: 508 x 3263 km, 33.3° (Epoch: 21 February)

Event Time Altitude Azimuth Distance (km) Brightness Sun altitude
Rises 03:15:12 0° 193° (SSW) 5,076 12.1 38.4°
Reaches altitude 10° 03:19:06 10° 179° (S) 4,498 12.2 38.4°
Maximum altitude 03:29:01 25° 131° (SE) 4,269 11.6 38.3°
Drops below altitude 10° 03:42:03 10° 86° (E) 6,063 11.6 38.0°
Sets 03:48:26 0° 76° (ENE) 7,221 11.8 37.9°
